sat.trackr.live / text

‹ back to catalog

STARLINK-3260

NORAD 50205 · 2021-125BB

PAYLOAD ACTIVE UNKNOWN

§ Identity

Operator
Country
US
Launch date
2021-12-18
Launch site
AFWTR
Launch vehicle
Mass (kg)
RCS (m²)

Purposes: comms

External: N2YO · Heavens-Above · Gunter

§ Orbital elements

Epoch: 2026-09-20T01:43:51.395232Z

Period
94.01 min
Inclination
53.1604°
Eccentricity
0.0001000
Mean motion
15.31701775 rev/d
Perigee alt
470.0 km
Apogee alt
471.4 km
Semi-major
6,848.9 km
B*
2.1175e-5
RAAN
50.8054°
Arg perigee
98.8150°
Mean anomaly
261.2965°
Rev number
26,657

§ Raw data

STARLINK-32601 50205U 21125BB  26263.07212263  .00000292  00000+0  21175-4 0  99972 50205  53.1604  50.8054 0001000  98.8150 261.2965 15.31701775266571

JSON: /api/v1/satellites/50205 · /tle

For live sub-satellite position, see the globe view (requires WebGL).

§ Visibility from observer

Set your observer location to see the next 7 days of passes ≥ 10°. The values pass through the URL so the page stays shareable.

No JS? Fill the form by hand. The geolocation button needs JavaScript.